Location: Follega
(52.8850°N, 5.7362°E)
Time: 21:17:19
(UTC+00:00)

CARTOSAT-1 - Pass Details

Date: 06 October 2020
Orbit: 616 x 619 km, 97.8° (Epoch: 22 October)

Event Time Altitude Azimuth Distance (km) Brightness Sun altitude
Exits shadow 20:40:56 19° 358° (N) 1,475 5.8 -32.0°
Drops below altitude 10° 20:42:15 10° 353° (N) 1,993 6.7 -32.2°
Sets 20:44:29 0° 349° (N) 2,903 7.7 -32.4°
